Tracking 19709 objects as of 17-Jun-2019
HD Live streaming from Space Station
objects crossing your sky now

FORMOSAT 3E

Track FORMOSAT 3E now!
10-day predictions
FORMOSAT 3E is classified as:


NORAD ID: 29051
Int'l Code: 2006-011E
Perigee: 753.5 km
Apogee: 852.6 km
Inclination: 72.0 °
Period: 100.8 minutes
Semi major axis: 7174 km
RCS: 0.58 m2 (medium)
Launch date: April 15, 2006
Source: Taiwan (Republic of China) (ROC)
Launch site: AIR FORCE WESTERN TEST RANGE (AFWTR)
aabbcc
Your satellite tracking list
Your tracking list is empty




NASA's NSSDC Master Catalog

Two Line Element Set (TLE):
1 29051U 06011E   19167.90676842 +.00000030 +00000-0 +27580-4 0  9990
2 29051 072.0050 121.7458 0069053 200.0902 159.7515 14.28749429689834
Source of the keplerian elements: AFSPC